Location: Goldmoor
(53.5501°N, 7.4615°E)
Time: 00:43:48
(UTC+00:00)

Daily predictions for brighter satellites

Satellite Brightness Start Highest point End
(mag) Time Altitude Azimuth Time Altitude Azimuth Time Altitude Azimuth
SL-16 R/B 3.1 00:12:19 50° ENE 00:12:19 50° ENE 00:18:14 10° N
Cosmos 1943 Rocket 3.2 00:17:17 42° N 00:17:17 42° N 00:21:25 10° NNE
COSMOS 2455 4.0 00:18:59 35° NW 00:19:34 36° NNW 00:25:07 10° NE
CZ-2D R/B 3.8 00:17:10 10° NE 00:20:45 26° ENE 00:20:45 26° ENE
ATLAS 5 CENTAUR R/B 4.3 00:26:24 13° ENE 00:26:24 13° ENE 00:27:09 10° ENE
USA 229 DEB 4.4 00:19:58 10° NW 00:24:44 45° WNW 00:24:44 45° WNW
USA 229 4.4 00:20:04 10° NW 00:24:51 45° WNW 00:24:51 45° WNW
Cosmos 2297 Rocket 3.0 00:23:31 10° NNW 00:28:49 47° NE 00:28:49 47° NE
Resurs 1-4 Rocket 3.5 00:31:04 10° NNE 00:34:54 33° ENE 00:34:54 33° ENE
NOSS 3-1 (A) 4.2 00:32:01 10° NW 00:37:40 59° WNW 00:37:40 59° WNW
Cosmos 2369 Rocket 3.1 00:41:05 45° NNW 00:41:05 45° NNW 00:45:37 10° NNE
Nadezhda 1 Rocket 4.2 00:42:42 65° NNE 00:42:42 65° NNE 00:47:51 10° NNE
Gbstr 26 Del rocket 4.5 00:44:54 70° SE 00:44:54 70° SE 00:52:05 10° E
CZ-4C R/B 3.3 00:47:10 38° NW 00:48:10 41° NNW 00:54:35 10° NE
ATLAS 2AS CENTAUR R/B 4.1 00:50:23 10° WNW 00:57:44 39° N 01:04:44 10° ENE
Cosmos 2221 4.2 01:06:06 31° NNE 01:06:06 31° NNE 01:08:25 10° NNE
SL-8 Rocket 3.9 01:05:56 10° N 01:12:12 81° ENE 01:12:12 81° ENE
Meteor 2-2 Rocket 4.3 01:23:00 76° ENE 01:23:00 76° ENE 01:28:30 10° NNE
Cosmos 2218 Rocket 4.0 01:17:10 10° N 01:23:38 83° E 01:24:06 77° SE
Cosmos 2366 rocket 3.9 01:19:47 10° N 01:26:07 83° E 01:26:34 76° SE
Cosmos 2227 Rocket 2.4 01:20:31 10° NNW 01:25:13 62° NNW 01:25:13 62° NNW
Lacrosse 5 4.0 01:32:48 16° ESE 01:32:48 16° ESE 01:35:25 10° E
USA 234 3.1 01:27:22 10° ESE 01:33:56 86° SSW 01:37:44 28° WNW
ADEOS II 2.7 01:32:49 10° NNE 01:37:55 48° E 01:38:28 46° ESE
Cosmos 2219 4.1 01:34:17 10° NW 01:37:44 37° NW 01:37:44 37° NW
CZ-4B R/B 4.0 01:35:35 10° NNE 01:40:32 52° E 01:40:47 52° ESE
Cosmos 864 Rocket 4.3 01:37:03 10° NNW 01:43:13 81° W 01:43:29 79° SW
Cosmos 1302 Rocket 4.2 01:44:28 64° NNW 01:44:28 64° NNW 01:49:12 10° NNE
NOSS 2-2 (C) 4.4 01:41:10 10° NW 01:46:12 74° NE 01:53:12 10° SE
SL-08 R/B 3.8 01:47:13 52° E 01:47:49 56° ENE 01:52:22 10° N
Cosmos 2181 Rocket 3.8 01:47:57 75° SSW 01:48:29 85° W 01:54:44 10° N
Cosmos 1633 Rocket 3.7 01:45:02 10° N 01:48:58 55° NE 01:48:58 55° NE
IDEFIX/ARIANE 42P 4.3 01:46:13 10° NE 01:50:42 27° E 01:53:40 17° SE
Cosmos 1666 Rocket 4.0 01:50:02 10° N 01:53:48 59° NNE 01:53:48 59° NNE
Cosmos 1959 Rocket 4.4 01:49:06 10° NNW 01:55:09 65° W 01:55:09 65° W
Cosmos 1241 Rocket 4.4 01:54:48 67° SSW 01:55:40 80° SE 02:02:09 10° NE
SL-16 R/B 3.3 01:57:26 35° WNW 01:57:26 35° WNW 02:01:51 10° NNW
Cosmos 1606 3.8 01:59:13 42° NE 01:59:13 42° NE 02:02:05 10° NNE
ATLAS CENTAUR R/B 4.2 01:42:17 12° W 01:59:23 74° NNW 02:05:51 10° ENE
ARIANE 5 R/B 3.6 01:55:09 10° NNE 01:59:56 38° E 02:01:51 28° SE
Cosmos 1943 Rocket 4.2 01:58:48 15° NW 02:01:04 19° NNW 02:04:55 10° NNE
IRS-1D 3.6 01:55:44 10° NNE 02:01:09 78° ESE 02:01:48 67° SSE
Cosmos 1151 Rocket 4.1 02:00:38 36° ESE 02:01:17 38° E 02:05:20 10° NNE
CZ-2D R/B 2.3 01:56:53 10° N 02:02:04 58° WNW 02:02:04 58° WNW
AQUA 3.9 01:57:45 10° NNE 02:02:08 69° NNW 02:02:08 69° NNW
ATLAS 5 CENTAUR R/B 1.7 02:07:56 70° N 02:07:56 70° N 02:12:35 10° NE
NPP 3.7 02:02:55 10° N 02:08:15 61° WNW 02:08:28 61° W
Genesis I 3.9 02:12:59 51° NNE 02:12:59 51° NNE 02:16:04 10° NE
Cosmos 2297 Rocket 3.4 02:07:44 10° NW 02:10:32 27° WNW 02:10:32 27° WNW
CBERS-1 3.9 02:08:11 10° NNE 02:13:21 89° ESE 02:13:59 70° SSW
Resurs 1-4 Rocket 2.5 02:10:51 10° N 02:15:52 45° WNW 02:15:58 45° WNW
Cosmos 2082 3.5 02:11:49 10° NW 02:17:31 73° WSW 02:20:24 30° SSE
Cosmos 1933 3.7 02:18:15 58° ESE 02:18:29 59° E 02:22:31 10° NNE
Cosmos 2369 Rocket 4.2 02:22:52 14° WNW 02:25:30 19° NNW 02:29:28 10° NNE
USA 306 4.5 02:26:37 24° SE 02:26:41 24° SE 02:30:08 10° E
SJ 16-02 3.0 02:23:40 10° N 02:27:43 34° NE 02:31:43 10° ESE
Meteor 1-25 Rocket 4.2 02:23:34 10° NNW 02:29:26 84° WSW 02:33:00 25° S
Gbstr 26 Del rocket 4.4 02:27:26 32° W 02:31:41 76° S 02:39:16 10° ESE
Cosmos 405 Rocket 4.3 02:28:09 10° NNW 02:30:08 26° NW 02:30:08 26° NW
ASTEX 1 4.0 02:28:06 10° NNE 02:33:03 57° E 02:36:22 20° SSE
IRS-P3 4.0 02:28:18 10° NNE 02:33:41 89° ESE 02:35:28 44° SSW
Cosmos 389 Rocket 4.4 02:32:19 19° SE 02:33:53 27° E 02:36:57 10° NE
Cosmos 1697 Rocket 3.0 02:32:33 34° S 02:34:50 60° ESE 02:40:22 10° NE
CZ-4C R/B 3.9 02:32:29 10° WNW 02:38:12 37° N 02:44:59 10° ENE
H-2A R/B 2.9 02:34:15 10° SE 02:38:30 52° ENE 02:42:52 10° N
Cosmos 1980 Rocket 3.3 02:35:19 17° SSE 02:39:05 38° ESE 02:44:18 10° NE
USA 267 3.4 02:32:58 10° ENE 02:39:30 65° SSE 02:42:17 36° SW
NOSS 2-1 (E) 4.2 02:40:33 34° NW 02:40:51 35° NNW 02:44:42 10° NE
ERS-2 4.0 02:38:39 10° SE 02:41:55 31° ENE 02:45:12 10° N
Cosmos 2221 4.4 02:42:57 17° NW 02:42:57 17° NW 02:45:11 10° NNW
Cosmos 1602 3.6 02:38:35 10° N 02:42:27 84° E 02:43:13 56° SSE
Cosmos 2263 Rocket 2.7 02:38:10 10° NNW 02:43:46 62° NE 02:49:23 10° SE
NOSS 2-2 (E) 4.5 02:38:25 10° NW 02:43:47 56° SW 02:51:11 10° SSE
SL-8 R/B 4.1 02:46:01 42° S 02:46:01 42° S 02:50:25 10° ESE
Meteor 1-14 Rocket 4.2 02:40:31 10° NNW 02:46:13 81° ENE 02:51:47 10° SSE
Cosmos 1818 3.7 02:46:11 43° WSW 02:47:51 64° NW 02:53:18 10° NE
ATLAS 2AS CENTAUR R/B 3.7 02:42:41 10° NW 02:50:17 53° NNE 02:57:20 10° ESE
NOSS 2-2 (D) 4.4 02:46:57 10° NW 02:52:13 57° SW 02:59:29 10° SSE
Cosmos 1821 Rocket 4.0 02:46:31 10° NNW 02:52:43 58° W 02:56:29 24° SSW
USA 307 4.0 02:52:25 30° S 02:53:20 33° SE 02:57:10 10° E
Cosmos 1470 Rocket 3.5 02:49:50 10° NNW 02:54:13 62° W 02:55:25 44° SSW
Cosmos 2227 4.3 02:49:04 10° NNW 02:54:47 75° NE 03:00:25 10° SE
Spot 4 Rocket 4.1 02:51:07 10° NNE 02:56:17 74° ESE 02:59:44 21° S
USA 308 3.9 02:55:23 30° S 02:56:24 34° SE 03:00:17 10° E
Cosmos 1500 3.9 02:55:25 10° N 02:59:13 54° ENE 03:02:59 10° SSE
Meteor 1-5 Rocket 4.4 03:00:21 10° N 03:05:39 67° ENE 03:11:00 10° SSE
Landsat 5 3.6 03:02:01 10° SSE 03:06:33 90° SSW 03:11:04 10° NNW
Cosmos 1934 Rocket 3.8 03:01:47 10° NNW 03:07:49 72° W 03:13:51 10° S
Cosmos 1777 Rocket 4.3 03:03:43 10° NW 03:08:37 41° WSW 03:12:06 18° SSW
Cosmos 2227 Rocket 3.9 03:05:31 10° NW 03:06:57 15° WNW 03:06:57 15° WNW
Cosmos 1238 Rocket 4.0 03:03:22 10° NNW 03:10:02 77° W 03:16:21 10° S
Cosmos 1782 2.7 03:10:11 30° SSW 03:12:06 84° W 03:16:10 10° N
Cosmos 1898 Rocket 4.1 03:07:21 10° NNW 03:12:33 59° ENE 03:17:46 10° SE
Cosmos 1656 4.0 03:12:05 30° WSW 03:14:27 50° NW 03:19:52 10° NNE
Lacrosse 5 2.2 03:12:00 28° SSW 03:14:28 58° SE 03:19:28 10° ENE
CZ-2C R/B 2.7 03:12:19 10° NNE 03:16:05 79° ESE 03:18:32 21° S
Cosmos 405 4.5 03:16:47 22° NW 03:16:47 22° NW 03:19:16 10° N
CZ-4B R/B 3.1 03:14:20 10° SE 03:17:13 33° ENE 03:20:12 10° N
ADEOS Rocket 3.5 03:10:33 10° SSE 03:17:14 69° ENE 03:23:16 10° NNW
USA 234 3.6 03:11:28 10° SSE 03:17:29 39° SW 03:23:32 10° WNW
ADEOS II 2.9 03:12:47 10° N 03:17:30 34° WNW 03:19:23 27° W
Cosmos 1515 Rocket 3.5 03:15:08 25° SSW 03:17:39 73° WNW 03:22:08 10° N
CZ-4B R/B 4.4 03:14:39 10° N 03:19:02 31° WNW 03:20:43 25° W
USA 276 2.9 03:21:38 34° SSW 03:22:09 37° SSE 03:25:10 10° E
Nadezhda 3 Rocket 4.1 03:18:39 23° SW 03:22:23 53° WNW 03:28:25 10° N
SL-08 R/B 4.4 03:26:12 23° W 03:26:12 23° W 03:29:43 10° NW
Cosmos 1356 3.6 03:23:23 10° NNW 03:26:44 47° W 03:28:27 24° SSW
MSX 3.8 03:20:59 10° NNE 03:26:48 85° WNW 03:32:35 10° SSW
Cosmos 972 Rocket 3.9 03:24:15 25° SW 03:27:01 62° WNW 03:31:58 10° NNE
Cosmos 44 4.0 03:24:49 15° SSW 03:28:16 46° SE 03:32:46 10° NE
IRIDIUM 103 4.4 03:23:01 10° N 03:28:17 80° E 03:33:31 10° S
Cosmos 1328 Rocket 4.2 03:28:50 27° WSW 03:30:27 37° WNW 03:34:37 10° N
Cosmos 1605 Rocket 4.0 03:24:13 10° NNW 03:30:35 75° W 03:36:58 10° S
IDEFIX/ARIANE 42P 2.7 03:25:27 10° N 03:30:38 58° WNW 03:34:28 18° SW
Meteor 1-11 Rocket 4.1 03:24:55 10° N 03:30:48 72° ENE 03:36:30 10° SSE
Cosmos 1933 Rocket 4.0 03:27:27 10° NNW 03:31:31 38° W 03:34:17 18° SSW
Cosmos 921 Rocket 3.7 03:28:18 10° S 03:32:21 52° ESE 03:36:27 10° NNE
Cosmos 2278 3.7 03:28:11 17° SSW 03:32:42 89° ESE 03:38:28 10° NNE
CZ-3B R/B 2.5 03:32:05 27° WSW 03:33:58 89° SSE 03:44:43 10° ENE
Cosmos 1606 4.3 03:34:15 18° WNW 03:34:25 18° WNW 03:37:05 10° NNW
Cosmos 2228 Rocket 3.0 03:31:24 10° S 03:35:48 88° W 03:40:15 10° N
SAR-Lupe-4 4.4 03:35:22 10° SSE 03:38:52 54° ENE 03:42:26 10° N
Cosmos 1151 Rocket 4.0 03:37:30 23° W 03:38:57 29° WNW 03:42:47 10° N
ARIANE 5 R/B 3.1 03:34:18 10° N 03:39:05 40° WNW 03:42:10 20° WSW
Cosmos 2369 3.8 03:36:40 20° SW 03:40:42 62° NW 03:46:26 10° NNE
CZ-2D R/B 4.0 03:38:26 10° NNW 03:41:10 14° NW 03:43:22 11° WNW
Cosmos 1937 Rocket 3.8 03:36:33 10° NNW 03:41:44 72° ENE 03:46:52 10° SSE
CZ-4C R/B 3.7 03:42:39 14° SSW 03:45:23 33° W 03:48:40 10° NNW
Cosmos 1733 Rocket 4.1 03:41:23 10° N 03:45:40 50° ENE 03:49:54 10° SSE
ALOS 4.0 03:41:25 10° NNE 03:45:43 35° E 03:49:59 10° SSE
IRIDIUM 106 4.3 03:41:23 10° N 03:46:38 75° W 03:51:50 10° S
Cosmos 1536 3.3 03:45:25 10° N 03:49:30 67° ENE 03:53:33 10° SSE
Cosmos 1869 Rocket 3.6 03:46:18 10° NNW 03:50:36 56° W 03:54:50 10° S
SAR-Lupe-1 4.4 03:47:38 10° SSE 03:51:10 71° ENE 03:54:46 10° NNW
ATLAS 5 CENTAUR R/B 3.1 03:49:28 12° WNW 03:53:04 30° NNW 03:57:41 10° NE
Resurs 1-4 Rocket 4.2 03:52:51 10° NNW 03:54:30 11° NW 03:56:09 10° WNW
Cosmos 1484 Rocket 4.3 03:50:53 10° NNE 03:54:37 39° E 03:58:23 10° SSE
Meteor 1-4 Rocket 2.6 03:54:32 10° S 03:57:59 75° E 04:01:31 10° NNE
USA 305 3.1 03:58:51 16° WSW 04:02:10 67° SSE 04:06:24 10° ENE
X-37B 2.6 04:01:25 14° SW 04:02:50 17° S 04:05:02 10° SE
Cosmos 2100 Rocket 4.1 03:58:47 10° N 04:05:13 88° E 04:11:37 10° S
Meteor 1-31 Rocket 4.2 04:01:48 10° NNE 04:05:26 40° E 04:09:04 10° S
Cosmos 1689 Rocket 3.0 04:02:43 10° SSE 04:05:36 52° ENE 04:08:33 10° N
USA 306 3.0 04:02:46 15° WSW 04:06:14 70° SSE 04:10:29 10° ENE
SJ 16-02 1.8 04:02:16 10° NW 04:06:20 37° WSW 04:10:23 10° S
Cosmos 1802 Rocket 4.3 04:01:22 10° N 04:07:34 73° ENE 04:13:47 10° SSE
PSLV R/B 3.5 04:03:51 10° N 04:08:03 64° WNW 04:12:11 10° SSW
Cosmos 1763 Rocket 4.2 04:03:11 10° S 04:08:24 60° ESE 04:13:38 10° NNE
Cosmos 389 Rocket 3.5 04:06:11 15° WSW 04:08:32 28° WNW 04:11:42 10° N
Cosmos 1727 Rocket 4.0 04:02:11 10° S 04:08:34 85° W 04:14:57 10° N
Cosmos 2360 Rocket 4.2 04:08:19 10° SSE 04:13:10 30° ESE 04:18:03 10° NE
H-2A R/B 3.2 04:11:12 10° SSW 04:14:45 24° W 04:18:23 10° NW
ERS-2 3.0 04:12:16 10° SSW 04:15:29 28° W 04:18:43 10° NW
CZ-2C R/B 2.5 04:10:35 10° N 04:15:38 65° WNW 04:20:44 10° SSW
NOSS 3-4 (A) 3.8 04:10:47 10° NW 04:17:36 77° SW 04:25:13 10° SE
NOSS 3-4 (C) 3.8 04:10:53 10° NW 04:17:42 77° SW 04:25:20 10° SE
Cosmos 1697 Rocket 3.5 04:14:19 11° WSW 04:19:08 36° NW 04:24:19 10° NNE
PAYLOAD A 4.0 04:14:34 10° N 04:19:12 53° WNW 04:23:45 10° SW
USA 267 3.4 04:16:07 10° ENE 04:22:39 74° NNW 04:29:10 10° W
Cosmos 2278 Rocket 4.2 04:18:01 10° NNW 04:22:54 28° NE 04:27:45 10° E
Cosmos 1980 Rocket 2.5 04:17:28 10° SW 04:23:00 51° NW 04:28:33 10° NNE
FENGYUN 3A 4.0 04:17:51 10° NNE 04:23:16 72° ESE 04:28:40 10° S
Cosmos 1844 4.1 04:18:14 10° NNW 04:23:49 67° NE 04:29:21 10° SE
SJ-6F 4.4 04:20:49 10° NNE 04:24:58 78° WNW 04:29:03 10° SSW
Cosmos 990 Rocket 4.4 04:21:09 10° NW 04:25:58 40° WSW 04:30:47 10° S
Cosmos 1459 Rocket 3.9 04:20:53 10° NNW 04:27:00 73° W 04:33:02 10° S
Cosmos 2263 Rocket 2.9 04:22:31 10° NW 04:27:23 30° WSW 04:32:16 10° SSW
CZ-4C R/B 3.4 04:21:21 10° NW 04:27:57 61° NNE 04:35:49 10° ESE
Meteor 1-10 Rocket 4.4 04:22:32 10° SSW 04:28:13 58° WNW 04:34:04 10° N
Cosmos 2322 Rocket 2.8 04:22:40 10° SSW 04:28:16 62° ESE 04:33:55 10° NE
NOSS 3-3 (A) 4.1 04:24:00 10° SW 04:29:56 85° SE 04:36:47 10° NE
NOSS 3-3 (C) 4.1 04:24:10 10° SW 04:30:03 85° SE 04:36:52 10° NE
Cosmos 1812 3.5 04:29:21 10° SW 04:32:51 33° WNW 04:36:24 10° N
Cosmos 468 Rocket 4.1 04:27:43 10° SSW 04:33:02 85° WNW 04:38:20 10° NNE
USA 307 3.0 04:28:49 10° WSW 04:33:05 82° SSE 04:37:21 10° E
Cosmos 1844 Rocket 2.8 04:29:01 10° NNW 04:34:42 89° ENE 04:40:22 10° SSE
SL-16 R/B 2.4 04:30:15 10° SSW 04:35:56 81° ESE 04:41:39 10° NNE
USA 308 3.0 04:31:54 10° WSW 04:36:10 84° SSE 04:40:27 10° E
COSMO-SKYMED 1 2.6 04:32:53 10° SSE 04:37:14 83° WSW 04:41:37 10° NNW
SL-4 R/B 4.4 04:36:26 10° SSW 04:40:10 24° SE 04:44:01 10° E
Cosmos 1666 3.6 04:37:14 10° NNW 04:40:32 27° W 04:43:47 10° SSW
ATLAS CENTAUR R/B 2.9 04:31:02 10° WNW 04:41:22 86° SSW 04:45:17 10° ESE
Cosmos 540 Rocket 4.2 04:36:35 10° S 04:41:39 59° ESE 04:46:46 10° NNE
ATLAS 2AS CENTAUR R/B 2.9 04:34:05 10° NW 04:41:40 69° SW 04:48:36 10° SSE
